Content
SEND FEEDBACK

Daily
Averages
Monthly
Summary
United States of America

COVINGTON, VIRGINIA


Home > North America > United States > Virginia
Elevation: 1395 feet     Latitude: 37 48N     Longitude: 080 00W

WEATHER
 
SELECT A DAY
Number of Records: 453,256;   Date Range: 1/1/95 - 9/16/14
 
SHARE

PRINT THIS DATA

[ ← Previous Day ]
WEATHER ALMANAC - JANUARY 31, 2013
[ Next Day → ]
[ °C ]   °F
Weather ElementAverageHighLow
Temperature14.6 °F21.2 °F (11:55 am) (9:15 am)
Dewpoint10.1 °F17.6 °F (10:35 pm) (7:00 pm)
Humidity78 %93 % (9:35 pm)63 % (3:15 pm)
Barometer26.25 in29.76 in (6:55 pm) (7:00 pm)
Wind Speed24.9 mph35.7 mph (4:15 pm)
Wind Gust56.4 mph (11:55 pm)
Weather ElementAverage
Wind DirectionWSW (243 °)

Weather ElementTotal
Precipitation---
Heating Degree Days54.4 (Base 65)
Averaged from 43 records on January 31, 2013
WEATHER CONDITIONS BREAKOUT
WIND DIRECTION BREAKOUT
WEATHER BY HOUR - JANUARY 31, 2013
[ °C ]   °F
Local TimeTemperatureDewpointHumidityBarometerVisibilityWind DirectionWind SpeedGust SpeedPrecipitationEventsConditions
9:15 AM0.0 °F0.0 °F29.59 inWest (270°)21.9 mph26.5 mph
9:35 AM0.0 °F0.0 °F29.59 inWest (280°)20.7 mph28.8 mph
9:55 AM0.0 °F0.0 °F29.60 inWest (270°)29.9 mph38.0 mph
10:15 AM0.0 °F0.0 °FNorth
10:35 AM0.0 °F0.0 °FNorth
10:55 AM0.0 °F0.0 °FNorth
11:15 AM0.0 °F0.0 °FNorth
11:35 AM0.0 °F0.0 °FNorth
11:55 AM21.2 °F15.8 °F80 %29.64 inWest (280°)28.8 mph38.0 mphMostly Cloudy
12:15 PM21.2 °F15.8 °F80 %29.65 inWest (280°)24.2 mph39.1 mphOvercast
12:35 PM21.2 °F15.8 °F80 %29.64 inWest (280°)20.7 mph32.2 mphOvercast
1:15 PM21.2 °F15.8 °F80 %29.65 inWest (270°)23.0 mph32.2 mphOvercast
1:35 PM21.2 °F12.2 °F68 %29.63 inWest (280°)29.9 mph47.2 mphOvercast
1:55 PM21.2 °F12.2 °F68 %29.63 inWest (280°)28.8 mph43.7 mphMostly Cloudy
2:15 PM19.4 °F14.0 °F80 %29.67 inWest (270°)24.2 mph33.4 mphOvercast
2:35 PM19.4 °F14.0 °F80 %29.65 inWest (280°)31.1 mph43.7 mphSnowLight Snow
2:55 PM21.2 °F12.2 °F68 %29.65 inWest (270°)32.2 mph48.3 mphMostly Cloudy
3:15 PM21.2 °F10.4 °F63 %29.65 inWest (270°)32.2 mph40.3 mphScattered Clouds
3:35 PM21.2 °F12.2 °F68 %29.68 inWest (280°)28.8 mph38.0 mphMostly Cloudy
4:15 PM21.2 °F12.2 °F68 %29.67 inWest (280°)35.7 mph54.1 mphScattered Clouds
4:35 PM21.2 °F12.2 °F68 %29.70 inWNW (290°)34.5 mph42.6 mphMostly Cloudy
4:55 PM21.2 °F12.2 °F68 %29.71 inWest (270°)25.3 mph50.6 mphOvercast
5:15 PM19.4 °F14.0 °F80 %29.72 inWest (270°)25.3 mph36.8 mphOvercast
5:35 PM19.4 °F15.8 °F86 %29.73 inWest (270°)21.9 mph31.1 mphOvercast
5:55 PM19.4 °F12.2 °F74 %29.74 inWest (280°)27.6 mph38.0 mphMostly Cloudy
6:15 PM19.4 °F12.2 °F74 %29.73 inWest (280°)28.8 mph42.6 mphMostly Cloudy
6:35 PM19.4 °F12.2 °F74 %29.74 inWest (270°)24.2 mph39.1 mphMostly Cloudy
6:55 PM17.6 °F12.2 °F79 %29.76 inWest (280°)20.7 mph31.1 mphMostly Cloudy
7:15 PM17.6 °F12.2 °F79 %29.75 inWest (270°)25.3 mph34.5 mphMostly Cloudy
7:35 PM17.6 °F12.2 °F79 %29.75 inWest (270°)20.7 mph36.8 mphOvercast
7:55 PM17.6 °F12.2 °F79 %29.75 inWest (280°)24.2 mph35.7 mphScattered Clouds
8:15 PM17.6 °F12.2 °F79 %29.74 inWest (270°)21.9 mph28.8 mphScattered Clouds
8:35 PM17.6 °F12.2 °F79 %29.74 inWest (280°)23.0 mph33.4 mphMostly Cloudy
8:55 PM17.6 °F12.2 °F79 %29.74 inWest (270°)21.9 mph32.2 mphMostly Cloudy
9:15 PM17.6 °F14.0 °F86 %29.74 inWest (280°)19.6 mph41.4 mph
9:35 PM17.6 °F15.8 °F93 %29.74 inWest (270°)23.0 mph35.7 mph
9:55 PM19.4 °F15.8 °F86 %29.75 inWest (280°)21.9 mph33.4 mph
10:15 PM19.4 °F15.8 °F86 %29.75 inWest (270°)20.7 mph29.9 mphOvercast
10:35 PM19.4 °F17.6 °F93 %29.74 inWest (280°)20.7 mph32.2 mphOvercast
10:55 PM19.4 °F17.6 °F93 %29.74 inWest (270°)19.6 mph34.5 mphOvercast
11:15 PM0.0 °F0.0 °F29.73 inWest (270°)20.7 mph25.3 mph
11:35 PM0.0 °F0.0 °F29.73 inWest (270°)19.6 mph29.9 mph
11:55 PM0.0 °F0.0 °F29.73 inWest (270°)23.0 mph56.4 mph
Hourly data recorded from KHSP, located miles away from Covington, Virginia







STORIES FROM OUR PARTNERS